Year,Month,Day,Hour,Minute,Value (Times are PST for temperature in C)
2014,04,30,00,00,9.10
2014,04,30,00,01,9.10
2014,04,30,00,02,9.10
2014,04,30,00,03,9.00
2014,04,30,00,04,9.00
2014,04,30,00,05,9.00
2014,04,30,00,06,9.00
2014,04,30,00,07,8.90
2014,04,30,00,08,8.90
2014,04,30,00,09,8.90
2014,04,30,00,10,8.90
2014,04,30,00,11,8.90
2014,04,30,00,12,8.90
2014,04,30,00,13,8.90
2014,04,30,00,14,8.80
2014,04,30,00,15,8.80
2014,04,30,00,16,8.80
2014,04,30,00,17,8.80
2014,04,30,00,18,8.80
2014,04,30,00,19,8.80
2014,04,30,00,20,8.80
2014,04,30,00,21,8.80
2014,04,30,00,22,8.80
2014,04,30,00,23,8.80
2014,04,30,00,24,8.80
2014,04,30,00,25,8.80
2014,04,30,00,26,8.80
2014,04,30,00,27,8.70
2014,04,30,00,28,8.70
2014,04,30,00,29,8.70
2014,04,30,00,30,8.70
2014,04,30,00,31,8.70
2014,04,30,00,32,8.70
2014,04,30,00,33,8.70
2014,04,30,00,34,8.70
2014,04,30,00,35,8.70
2014,04,30,00,36,8.70
2014,04,30,00,37,8.60
2014,04,30,00,38,8.60
2014,04,30,00,39,8.60
2014,04,30,00,40,8.60
2014,04,30,00,41,8.70
2014,04,30,00,42,8.70
2014,04,30,00,43,8.80
2014,04,30,00,44,8.80
2014,04,30,00,45,8.90
2014,04,30,00,46,8.90
2014,04,30,00,47,8.90
2014,04,30,00,48,9.00
2014,04,30,00,49,9.00
2014,04,30,00,50,9.00
2014,04,30,00,51,9.00
2014,04,30,00,52,9.00
2014,04,30,00,53,9.00
2014,04,30,00,54,9.00
2014,04,30,00,55,9.00
2014,04,30,00,56,9.00
2014,04,30,00,57,9.00
2014,04,30,00,58,9.00
2014,04,30,00,59,9.00
2014,04,30,01,00,8.90
2014,04,30,01,01,8.90
2014,04,30,01,02,8.90
2014,04,30,01,03,8.90
2014,04,30,01,04,8.90
2014,04,30,01,05,8.90
2014,04,30,01,06,8.90
2014,04,30,01,07,8.90
2014,04,30,01,08,9.00
2014,04,30,01,09,9.00
2014,04,30,01,10,9.00
2014,04,30,01,11,9.00
2014,04,30,01,12,8.90
2014,04,30,01,13,8.90
2014,04,30,01,14,8.90
2014,04,30,01,15,8.90
2014,04,30,01,16,8.80
2014,04,30,01,17,8.80
2014,04,30,01,18,8.80
2014,04,30,01,19,8.80
2014,04,30,01,20,8.80
2014,04,30,01,21,8.80
2014,04,30,01,22,8.80
2014,04,30,01,23,8.80
2014,04,30,01,24,8.80
2014,04,30,01,25,8.80
2014,04,30,01,26,8.80
2014,04,30,01,27,8.80
2014,04,30,01,28,8.80
2014,04,30,01,29,8.80
2014,04,30,01,30,8.80
2014,04,30,01,31,8.80
2014,04,30,01,32,8.80
2014,04,30,01,33,8.80
2014,04,30,01,34,8.80
2014,04,30,01,35,8.80
2014,04,30,01,36,8.80
2014,04,30,01,37,8.80
2014,04,30,01,38,8.80
2014,04,30,01,39,8.80
2014,04,30,01,40,8.90
2014,04,30,01,41,8.90
2014,04,30,01,42,9.00
2014,04,30,01,43,9.00
2014,04,30,01,44,9.00
2014,04,30,01,45,9.10
2014,04,30,01,46,9.10
2014,04,30,01,47,9.20
2014,04,30,01,48,9.20
2014,04,30,01,49,9.20
2014,04,30,01,50,9.30
2014,04,30,01,51,9.30
2014,04,30,01,52,9.30
2014,04,30,01,53,9.30
2014,04,30,01,54,9.30
2014,04,30,01,55,9.30
2014,04,30,01,56,9.30
2014,04,30,01,57,9.20
2014,04,30,01,58,9.20
2014,04,30,01,59,9.20
2014,04,30,02,00,9.20
2014,04,30,02,01,9.20
2014,04,30,02,02,9.10
2014,04,30,02,03,9.10
2014,04,30,02,04,9.10
2014,04,30,02,05,9.10
2014,04,30,02,06,9.10
2014,04,30,02,07,9.10
2014,04,30,02,08,9.20
2014,04,30,02,09,9.20
2014,04,30,02,10,9.20
2014,04,30,02,11,9.30
2014,04,30,02,12,9.30
2014,04,30,02,13,9.30
2014,04,30,02,14,9.40
2014,04,30,02,15,9.40
2014,04,30,02,16,9.40
2014,04,30,02,17,9.30
2014,04,30,02,18,9.30
2014,04,30,02,19,9.30
2014,04,30,02,20,9.30
2014,04,30,02,21,9.20
2014,04,30,02,22,9.20
2014,04,30,02,23,9.20
2014,04,30,02,24,9.20
2014,04,30,02,25,9.10
2014,04,30,02,26,9.10
2014,04,30,02,27,9.10
2014,04,30,02,28,9.10
2014,04,30,02,29,9.10
2014,04,30,02,30,9.10
2014,04,30,02,31,9.10
2014,04,30,02,32,9.10
2014,04,30,02,33,9.10
2014,04,30,02,34,9.10
2014,04,30,02,35,9.10
2014,04,30,02,36,9.00
2014,04,30,02,37,9.00
2014,04,30,02,38,8.90
2014,04,30,02,39,8.90
2014,04,30,02,40,8.80
2014,04,30,02,41,8.80
2014,04,30,02,42,8.70
2014,04,30,02,43,8.70
2014,04,30,02,44,8.70
2014,04,30,02,45,8.70
2014,04,30,02,46,8.70
2014,04,30,02,47,8.70
2014,04,30,02,48,8.70
2014,04,30,02,49,8.70
2014,04,30,02,50,8.70
2014,04,30,02,51,8.70
2014,04,30,02,52,8.70
2014,04,30,02,53,8.70
2014,04,30,02,54,8.70
2014,04,30,02,55,8.70
2014,04,30,02,56,8.70
2014,04,30,02,57,8.70
2014,04,30,02,58,8.70
2014,04,30,02,59,8.70
2014,04,30,03,00,8.70
2014,04,30,03,01,8.70
2014,04,30,03,02,8.70
2014,04,30,03,03,8.70
2014,04,30,03,04,8.70
2014,04,30,03,05,8.70
2014,04,30,03,06,8.70
2014,04,30,03,07,8.70
2014,04,30,03,08,8.70
2014,04,30,03,09,8.70
2014,04,30,03,10,8.70
2014,04,30,03,11,8.70
2014,04,30,03,12,8.80
2014,04,30,03,13,8.80
2014,04,30,03,14,8.80
2014,04,30,03,15,8.80
2014,04,30,03,16,8.80
2014,04,30,03,17,8.80
2014,04,30,03,18,8.80
2014,04,30,03,19,8.80
2014,04,30,03,20,8.80
2014,04,30,03,21,8.80
2014,04,30,03,22,8.80
2014,04,30,03,23,8.80
2014,04,30,03,24,8.90
2014,04,30,03,25,8.90
2014,04,30,03,26,8.90
2014,04,30,03,27,8.90
2014,04,30,03,28,8.90
2014,04,30,03,29,8.90
2014,04,30,03,30,9.00
2014,04,30,03,31,9.00
2014,04,30,03,32,9.00
2014,04,30,03,33,9.00
2014,04,30,03,34,9.00
2014,04,30,03,35,8.90
2014,04,30,03,36,8.90
2014,04,30,03,37,8.90
2014,04,30,03,38,8.90
2014,04,30,03,39,8.90
2014,04,30,03,40,8.90
2014,04,30,03,41,8.90
2014,04,30,03,42,8.90
2014,04,30,03,43,8.90
2014,04,30,03,44,8.90
2014,04,30,03,45,8.90
2014,04,30,03,46,8.90
2014,04,30,03,47,8.90
2014,04,30,03,48,9.00
2014,04,30,03,49,9.00
2014,04,30,03,50,9.00
2014,04,30,03,51,9.00
2014,04,30,03,52,9.00
2014,04,30,03,53,9.10
2014,04,30,03,54,9.10
2014,04,30,03,55,9.10
2014,04,30,03,56,9.10
2014,04,30,03,57,9.10
2014,04,30,03,58,9.10
2014,04,30,03,59,9.20
2014,04,30,04,00,9.20
2014,04,30,04,01,9.20
2014,04,30,04,02,9.20
2014,04,30,04,03,9.20
2014,04,30,04,04,9.20
2014,04,30,04,05,9.20
2014,04,30,04,06,9.20
2014,04,30,04,07,9.20
2014,04,30,04,08,9.20
2014,04,30,04,09,9.20
2014,04,30,04,10,9.20
2014,04,30,04,11,9.20
2014,04,30,04,12,9.20
2014,04,30,04,13,9.20
2014,04,30,04,14,9.20
2014,04,30,04,15,9.20
2014,04,30,04,16,9.20
2014,04,30,04,17,9.20
2014,04,30,04,18,9.20
2014,04,30,04,19,9.20
2014,04,30,04,20,9.20
2014,04,30,04,21,9.20
2014,04,30,04,22,9.20
2014,04,30,04,23,9.10
2014,04,30,04,24,9.10
2014,04,30,04,25,9.10
2014,04,30,04,26,9.10
2014,04,30,04,27,9.00
2014,04,30,04,28,9.00
2014,04,30,04,29,8.90
2014,04,30,04,30,8.90
2014,04,30,04,31,8.90
2014,04,30,04,32,8.90
2014,04,30,04,33,8.90
2014,04,30,04,34,8.80
2014,04,30,04,35,8.80
2014,04,30,04,36,8.80
2014,04,30,04,37,8.80
2014,04,30,04,38,8.80
2014,04,30,04,39,8.80
2014,04,30,04,40,8.80
2014,04,30,04,41,8.80
2014,04,30,04,42,8.80
2014,04,30,04,43,8.80
2014,04,30,04,44,8.70
2014,04,30,04,45,8.70
2014,04,30,04,46,8.70
2014,04,30,04,47,8.70
2014,04,30,04,48,8.70
2014,04,30,04,49,8.70
2014,04,30,04,50,8.60
2014,04,30,04,51,8.60
2014,04,30,04,52,8.60
2014,04,30,04,53,8.60
2014,04,30,04,54,8.70
2014,04,30,04,55,8.70
2014,04,30,04,56,8.70
2014,04,30,04,57,8.70
2014,04,30,04,58,8.70
2014,04,30,04,59,8.70
2014,04,30,05,00,8.70
2014,04,30,05,01,8.70
2014,04,30,05,02,8.70
2014,04,30,05,03,8.70
2014,04,30,05,04,8.70
2014,04,30,05,05,8.70
2014,04,30,05,06,8.80
2014,04,30,05,07,8.80
2014,04,30,05,08,8.90
2014,04,30,05,09,9.00
2014,04,30,05,10,9.00
2014,04,30,05,11,9.10
2014,04,30,05,12,9.20
2014,04,30,05,13,9.20
2014,04,30,05,14,9.20
2014,04,30,05,15,9.30
2014,04,30,05,16,9.30
2014,04,30,05,17,9.30
2014,04,30,05,18,9.30
2014,04,30,05,19,9.30
2014,04,30,05,20,9.30
2014,04,30,05,21,9.30
2014,04,30,05,22,9.30
2014,04,30,05,23,9.20
2014,04,30,05,24,9.20
2014,04,30,05,25,9.20
2014,04,30,05,26,9.20
2014,04,30,05,27,9.20
2014,04,30,05,28,9.20
2014,04,30,05,29,9.10
2014,04,30,05,30,9.10
2014,04,30,05,31,9.10
2014,04,30,05,32,9.10
2014,04,30,05,33,9.10
2014,04,30,05,34,9.10
2014,04,30,05,35,9.00
2014,04,30,05,36,9.00
2014,04,30,05,37,9.00
2014,04,30,05,38,9.00
2014,04,30,05,39,9.00
2014,04,30,05,40,9.00
2014,04,30,05,41,9.00
2014,04,30,05,42,9.00
2014,04,30,05,43,9.00
2014,04,30,05,44,9.00
2014,04,30,05,45,9.00
2014,04,30,05,46,9.10
2014,04,30,05,47,9.10
2014,04,30,05,48,9.10
2014,04,30,05,49,9.10
2014,04,30,05,50,9.10
2014,04,30,05,51,9.10
2014,04,30,05,52,9.10
2014,04,30,05,53,9.10
2014,04,30,05,54,9.10
2014,04,30,05,55,9.20
2014,04,30,05,56,9.20
2014,04,30,05,57,9.20
2014,04,30,05,58,9.20
2014,04,30,05,59,9.20
2014,04,30,06,00,9.20
2014,04,30,06,01,9.20
2014,04,30,06,02,9.20
2014,04,30,06,03,9.30
2014,04,30,06,04,9.30
2014,04,30,06,05,9.30
2014,04,30,06,06,9.30
2014,04,30,06,07,9.30
2014,04,30,06,08,9.30
2014,04,30,06,09,9.30
2014,04,30,06,10,9.30
2014,04,30,06,11,9.30
2014,04,30,06,12,9.30
2014,04,30,06,13,9.30
2014,04,30,06,14,9.30
2014,04,30,06,15,9.30
2014,04,30,06,16,9.30
2014,04,30,06,17,9.30
2014,04,30,06,18,9.30
2014,04,30,06,19,9.30
2014,04,30,06,20,9.20
2014,04,30,06,21,9.20
2014,04,30,06,22,9.20
2014,04,30,06,23,9.20
2014,04,30,06,24,9.10
2014,04,30,06,25,9.10
2014,04,30,06,26,9.10
2014,04,30,06,27,9.10
2014,04,30,06,28,9.10
2014,04,30,06,29,9.10
2014,04,30,06,30,9.10
2014,04,30,06,31,9.10
2014,04,30,06,32,9.10
2014,04,30,06,33,9.10
2014,04,30,06,34,9.10
2014,04,30,06,35,9.10
2014,04,30,06,36,9.10
2014,04,30,06,37,9.20
2014,04,30,06,38,9.20
2014,04,30,06,39,9.10
2014,04,30,06,40,9.10
2014,04,30,06,41,9.10
2014,04,30,06,42,9.10
2014,04,30,06,43,9.10
2014,04,30,06,44,9.10
2014,04,30,06,45,9.10
2014,04,30,06,46,9.10
2014,04,30,06,47,9.10
2014,04,30,06,48,9.10
2014,04,30,06,49,9.10
2014,04,30,06,50,9.10
2014,04,30,06,51,9.10
2014,04,30,06,52,9.10
2014,04,30,06,53,9.10
2014,04,30,06,54,9.20
2014,04,30,06,55,9.20
2014,04,30,06,56,9.20
2014,04,30,06,57,9.30
2014,04,30,06,58,9.30
2014,04,30,06,59,9.40
2014,04,30,07,00,9.40
2014,04,30,07,01,9.50
2014,04,30,07,02,9.60
2014,04,30,07,03,9.60
2014,04,30,07,04,9.70
2014,04,30,07,05,9.80
2014,04,30,07,06,9.90
2014,04,30,07,07,9.90
2014,04,30,07,08,10.00
2014,04,30,07,09,10.00
2014,04,30,07,10,10.10
2014,04,30,07,11,10.10
2014,04,30,07,12,10.20
2014,04,30,07,13,10.20
2014,04,30,07,14,10.30
2014,04,30,07,15,10.30
2014,04,30,07,16,10.40
2014,04,30,07,17,10.40
2014,04,30,07,18,10.50
2014,04,30,07,19,10.50
2014,04,30,07,20,10.60
2014,04,30,07,21,10.60
2014,04,30,07,22,10.60
2014,04,30,07,23,10.70
2014,04,30,07,24,10.70
2014,04,30,07,25,10.80
2014,04,30,07,26,10.80
2014,04,30,07,27,10.90
2014,04,30,07,28,10.90
2014,04,30,07,29,11.00
2014,04,30,07,30,11.00
2014,04,30,07,31,11.10
2014,04,30,07,32,11.20
2014,04,30,07,33,11.30
2014,04,30,07,34,11.30
2014,04,30,07,35,11.40
2014,04,30,07,36,11.40
2014,04,30,07,37,11.50
2014,04,30,07,38,11.60
2014,04,30,07,39,11.60
2014,04,30,07,40,11.70
2014,04,30,07,41,11.70
2014,04,30,07,42,11.80
2014,04,30,07,43,11.90
2014,04,30,07,44,11.90
2014,04,30,07,45,12.00
2014,04,30,07,46,12.10
2014,04,30,07,47,12.20
2014,04,30,07,48,12.20
2014,04,30,07,49,12.30
2014,04,30,07,50,12.40
2014,04,30,07,51,12.40
2014,04,30,07,52,12.50
2014,04,30,07,53,12.50
2014,04,30,07,54,12.50
2014,04,30,07,55,12.60
2014,04,30,07,56,12.70
2014,04,30,07,57,12.70
2014,04,30,07,58,12.80
2014,04,30,07,59,12.80
2014,04,30,08,00,12.90
2014,04,30,08,01,13.00
2014,04,30,08,02,13.00
2014,04,30,08,03,13.10
2014,04,30,08,04,13.20
2014,04,30,08,05,13.20
2014,04,30,08,06,13.30
2014,04,30,08,07,13.30
2014,04,30,08,08,13.30
2014,04,30,08,09,13.30
2014,04,30,08,10,13.40
2014,04,30,08,11,13.40
2014,04,30,08,12,13.40
2014,04,30,08,13,13.40
2014,04,30,08,14,13.40
2014,04,30,08,15,13.50
2014,04,30,08,16,13.50
2014,04,30,08,17,13.60
2014,04,30,08,18,13.70
2014,04,30,08,19,13.70
2014,04,30,08,20,13.80
2014,04,30,08,21,13.80
2014,04,30,08,22,13.90
2014,04,30,08,23,13.90
2014,04,30,08,24,14.00
2014,04,30,08,25,14.10
2014,04,30,08,26,14.10
2014,04,30,08,27,14.20
2014,04,30,08,28,14.20
2014,04,30,08,29,14.30
2014,04,30,08,30,14.30
2014,04,30,08,31,14.30
2014,04,30,08,32,14.30
2014,04,30,08,33,14.30
2014,04,30,08,34,14.30
2014,04,30,08,35,14.30
2014,04,30,08,36,14.40
2014,04,30,08,37,14.40
2014,04,30,08,38,14.50
2014,04,30,08,39,14.50
2014,04,30,08,40,14.50
2014,04,30,08,41,14.60
2014,04,30,08,42,14.60
2014,04,30,08,43,14.50
2014,04,30,08,44,14.50
2014,04,30,08,45,14.50
2014,04,30,08,46,14.50
2014,04,30,08,47,14.60
2014,04,30,08,48,14.50
2014,04,30,08,49,14.50
2014,04,30,08,50,14.50
2014,04,30,08,51,14.50
2014,04,30,08,52,14.50
2014,04,30,08,53,14.60
2014,04,30,08,54,14.70
2014,04,30,08,55,14.80
2014,04,30,08,56,14.90
2014,04,30,08,57,15.00
2014,04,30,08,58,15.00
2014,04,30,08,59,15.00
2014,04,30,09,00,15.00
2014,04,30,09,01,15.10
2014,04,30,09,02,15.20
2014,04,30,09,03,15.30
2014,04,30,09,04,15.30
2014,04,30,09,05,15.30
2014,04,30,09,06,15.30
2014,04,30,09,07,15.30
2014,04,30,09,08,15.30
2014,04,30,09,09,15.20
2014,04,30,09,10,15.10
2014,04,30,09,11,15.00
2014,04,30,09,12,15.00
2014,04,30,09,13,14.80
2014,04,30,09,14,14.70
2014,04,30,09,15,14.50
2014,04,30,09,16,14.40
2014,04,30,09,17,14.30
2014,04,30,09,18,14.20
2014,04,30,09,19,14.10
2014,04,30,09,20,14.00
2014,04,30,09,21,14.00
2014,04,30,09,22,13.90
2014,04,30,09,23,13.90
2014,04,30,09,24,14.00
2014,04,30,09,25,14.00
2014,04,30,09,26,14.00
2014,04,30,09,27,14.10
2014,04,30,09,28,14.10
2014,04,30,09,29,14.10
2014,04,30,09,30,14.10
2014,04,30,09,31,14.10
2014,04,30,09,32,14.00
2014,04,30,09,33,14.00
2014,04,30,09,34,14.00
2014,04,30,09,35,14.00
2014,04,30,09,36,14.00
2014,04,30,09,37,14.00
2014,04,30,09,38,13.90
2014,04,30,09,39,13.90
2014,04,30,09,40,13.90
2014,04,30,09,41,13.90
2014,04,30,09,42,13.90
2014,04,30,09,43,13.90
2014,04,30,09,44,13.90
2014,04,30,09,45,13.90
2014,04,30,09,46,13.90
2014,04,30,09,47,13.90
2014,04,30,09,48,13.90
2014,04,30,09,49,13.90
2014,04,30,09,50,13.90
2014,04,30,09,51,14.00
2014,04,30,09,52,14.00
2014,04,30,09,53,14.10
2014,04,30,09,54,14.10
2014,04,30,09,55,14.20
2014,04,30,09,56,14.30
2014,04,30,09,57,14.40
2014,04,30,09,58,14.50
2014,04,30,09,59,14.50
2014,04,30,10,00,14.50
2014,04,30,10,01,14.50
2014,04,30,10,02,14.60
2014,04,30,10,03,14.60
2014,04,30,10,04,14.60
2014,04,30,10,05,14.60
2014,04,30,10,06,14.60
2014,04,30,10,07,14.60
2014,04,30,10,08,14.60
2014,04,30,10,09,14.60
2014,04,30,10,10,14.60
2014,04,30,10,11,14.60
2014,04,30,10,12,14.60
2014,04,30,10,13,14.70
2014,04,30,10,14,14.70
2014,04,30,10,15,14.70
2014,04,30,10,16,14.70
2014,04,30,10,17,14.60
2014,04,30,10,18,14.60
2014,04,30,10,19,14.60
2014,04,30,10,20,14.60
2014,04,30,10,21,14.70
2014,04,30,10,22,14.70
2014,04,30,10,23,14.80
2014,04,30,10,24,14.80
2014,04,30,10,25,14.90
2014,04,30,10,26,14.90
2014,04,30,10,27,14.90
2014,04,30,10,28,14.80
2014,04,30,10,29,14.80
2014,04,30,10,30,14.70
2014,04,30,10,31,14.60
2014,04,30,10,32,14.50
2014,04,30,10,33,14.50
2014,04,30,10,34,14.40
2014,04,30,10,35,14.40
2014,04,30,10,36,14.40
2014,04,30,10,37,14.40
2014,04,30,10,38,14.40
2014,04,30,10,39,14.40
2014,04,30,10,40,14.40
2014,04,30,10,41,14.40
2014,04,30,10,42,14.40
2014,04,30,10,43,14.40
2014,04,30,10,44,14.40
2014,04,30,10,45,14.40
2014,04,30,10,46,14.40
2014,04,30,10,47,14.50
2014,04,30,10,48,14.40
2014,04,30,10,49,14.40
2014,04,30,10,50,14.40
2014,04,30,10,51,14.50
2014,04,30,10,52,14.50
2014,04,30,10,53,14.50
2014,04,30,10,54,14.50
2014,04,30,10,55,14.50
2014,04,30,10,56,14.50
2014,04,30,10,57,14.50
2014,04,30,10,58,14.50
2014,04,30,10,59,14.40
2014,04,30,11,00,14.50
2014,04,30,11,01,14.50
2014,04,30,11,02,14.60
2014,04,30,11,03,14.60
2014,04,30,11,04,14.70
2014,04,30,11,05,14.80
2014,04,30,11,06,14.80
2014,04,30,11,07,14.80
2014,04,30,11,08,14.80
2014,04,30,11,09,14.70
2014,04,30,11,10,14.70
2014,04,30,11,11,14.70
2014,04,30,11,12,14.70
2014,04,30,11,13,14.70
2014,04,30,11,14,14.70
2014,04,30,11,15,14.80
2014,04,30,11,16,14.80
2014,04,30,11,17,14.90
2014,04,30,11,18,15.00
2014,04,30,11,19,15.00
2014,04,30,11,20,15.00
2014,04,30,11,21,15.00
2014,04,30,11,22,15.00
2014,04,30,11,23,15.00
2014,04,30,11,24,15.00
2014,04,30,11,25,15.00
2014,04,30,11,26,15.00
2014,04,30,11,27,15.00
2014,04,30,11,28,15.00
2014,04,30,11,29,15.00
2014,04,30,11,30,15.00
2014,04,30,11,31,15.00
2014,04,30,11,32,15.10
2014,04,30,11,33,15.20
2014,04,30,11,34,15.20
2014,04,30,11,35,15.20
2014,04,30,11,36,15.20
2014,04,30,11,37,15.20
2014,04,30,11,38,15.20
2014,04,30,11,39,15.20
2014,04,30,11,40,15.20
2014,04,30,11,41,15.10
2014,04,30,11,42,15.10
2014,04,30,11,43,15.00
2014,04,30,11,44,15.00
2014,04,30,11,45,15.00
2014,04,30,11,46,15.00
2014,04,30,11,47,15.00
2014,04,30,11,48,15.00
2014,04,30,11,49,15.10
2014,04,30,11,50,15.20
2014,04,30,11,51,15.20
2014,04,30,11,52,15.30
2014,04,30,11,53,15.40
2014,04,30,11,54,15.40
2014,04,30,11,55,15.40
2014,04,30,11,56,15.40
2014,04,30,11,57,15.30
2014,04,30,11,58,15.30
2014,04,30,11,59,15.30
2014,04,30,12,00,15.30
2014,04,30,12,01,15.20
2014,04,30,12,02,15.10
2014,04,30,12,03,15.00
2014,04,30,12,04,15.00
2014,04,30,12,05,15.00
2014,04,30,12,06,15.00
2014,04,30,12,07,15.10
2014,04,30,12,08,15.20
2014,04,30,12,09,15.20
2014,04,30,12,10,15.30
2014,04,30,12,11,15.30
2014,04,30,12,12,15.30
2014,04,30,12,13,15.40
2014,04,30,12,14,15.40
2014,04,30,12,15,15.40
2014,04,30,12,16,15.40
2014,04,30,12,17,15.40
2014,04,30,12,18,15.40
2014,04,30,12,19,15.40
2014,04,30,12,20,15.30
2014,04,30,12,21,15.30
2014,04,30,12,22,15.20
2014,04,30,12,23,15.20
2014,04,30,12,24,15.20
2014,04,30,12,25,15.20
2014,04,30,12,26,15.20
2014,04,30,12,27,15.20
2014,04,30,12,28,15.30
2014,04,30,12,29,15.40
2014,04,30,12,30,15.40
2014,04,30,12,31,15.40
2014,04,30,12,32,15.40
2014,04,30,12,33,15.40
2014,04,30,12,34,15.40
2014,04,30,12,35,15.30
2014,04,30,12,36,15.30
2014,04,30,12,37,15.20
2014,04,30,12,38,15.20
2014,04,30,12,39,15.20
2014,04,30,12,40,15.10
2014,04,30,12,41,15.10
2014,04,30,12,42,15.10
2014,04,30,12,43,15.10
2014,04,30,12,44,15.10
2014,04,30,12,45,15.20
2014,04,30,12,46,15.20
2014,04,30,12,47,15.20
2014,04,30,12,48,15.30
2014,04,30,12,49,15.40
2014,04,30,12,50,15.40
2014,04,30,12,51,15.50
2014,04,30,12,52,15.50
2014,04,30,12,53,15.60
2014,04,30,12,54,15.60
2014,04,30,12,55,15.70
2014,04,30,12,56,15.80
2014,04,30,12,57,15.80
2014,04,30,12,58,16.00
2014,04,30,12,59,16.00
2014,04,30,13,00,16.10
2014,04,30,13,01,16.10
2014,04,30,13,02,16.10
2014,04,30,13,03,16.10
2014,04,30,13,04,16.20
2014,04,30,13,05,16.20
2014,04,30,13,06,16.30
2014,04,30,13,07,16.40
2014,04,30,13,08,16.40
2014,04,30,13,09,16.40
2014,04,30,13,10,16.50
2014,04,30,13,11,16.50
2014,04,30,13,12,16.60
2014,04,30,13,13,16.60
2014,04,30,13,14,16.50
2014,04,30,13,15,16.40
2014,04,30,13,16,16.40
2014,04,30,13,17,16.30
2014,04,30,13,18,16.30
2014,04,30,13,19,16.30
2014,04,30,13,20,16.20
2014,04,30,13,21,16.20
2014,04,30,13,22,16.20
2014,04,30,13,23,16.20
2014,04,30,13,24,16.30
2014,04,30,13,25,16.40
2014,04,30,13,26,16.50
2014,04,30,13,27,16.60
2014,04,30,13,28,16.70
2014,04,30,13,29,16.80
2014,04,30,13,30,16.80
2014,04,30,13,31,16.90
2014,04,30,13,32,16.90
2014,04,30,13,33,16.90
2014,04,30,13,34,16.90
2014,04,30,13,35,16.90
2014,04,30,13,36,16.90
2014,04,30,13,37,16.90
2014,04,30,13,38,16.90
2014,04,30,13,39,16.90
2014,04,30,13,40,16.90
2014,04,30,13,41,16.80
2014,04,30,13,42,16.80
2014,04,30,13,43,16.80
2014,04,30,13,44,16.80
2014,04,30,13,45,16.80
2014,04,30,13,46,16.90
2014,04,30,13,47,16.80
2014,04,30,13,48,16.80
2014,04,30,13,49,16.70
2014,04,30,13,50,16.70
2014,04,30,13,51,16.70
2014,04,30,13,52,16.60
2014,04,30,13,53,16.50
2014,04,30,13,54,16.50
2014,04,30,13,55,16.40
2014,04,30,13,56,16.30
2014,04,30,13,57,16.30
2014,04,30,13,58,16.30
2014,04,30,13,59,16.30
2014,04,30,14,00,16.30
2014,04,30,14,01,16.30
2014,04,30,14,02,16.30
2014,04,30,14,03,16.30
2014,04,30,14,04,16.30
2014,04,30,14,05,16.30
2014,04,30,14,06,16.30
2014,04,30,14,07,16.40
2014,04,30,14,08,16.40
2014,04,30,14,09,16.50
2014,04,30,14,10,16.50
2014,04,30,14,11,16.60
2014,04,30,14,12,16.60
2014,04,30,14,13,16.70
2014,04,30,14,14,16.80
2014,04,30,14,15,16.90
2014,04,30,14,16,16.90
2014,04,30,14,17,16.90
2014,04,30,14,18,17.00
2014,04,30,14,19,17.00
2014,04,30,14,20,17.10
2014,04,30,14,21,17.20
2014,04,30,14,22,17.30
2014,04,30,14,23,17.40
2014,04,30,14,24,17.40
2014,04,30,14,25,17.40
2014,04,30,14,26,17.40
2014,04,30,14,27,17.40
2014,04,30,14,28,17.50
2014,04,30,14,29,17.60
2014,04,30,14,30,17.70
2014,04,30,14,31,17.80
2014,04,30,14,32,17.80
2014,04,30,14,33,17.80
2014,04,30,14,34,17.80
2014,04,30,14,35,17.80
2014,04,30,14,36,17.80
2014,04,30,14,37,17.80
2014,04,30,14,38,17.80
2014,04,30,14,39,17.80
2014,04,30,14,40,17.80
2014,04,30,14,41,17.80
2014,04,30,14,42,17.80
2014,04,30,14,43,17.80
2014,04,30,14,44,17.70
2014,04,30,14,45,17.70
2014,04,30,14,46,17.60
2014,04,30,14,47,17.50
2014,04,30,14,48,17.50
2014,04,30,14,49,17.50
2014,04,30,14,50,17.50
2014,04,30,14,51,17.60
2014,04,30,14,52,17.60
2014,04,30,14,53,17.70
2014,04,30,14,54,17.90
2014,04,30,14,55,18.00
2014,04,30,14,56,18.00
2014,04,30,14,57,18.00
2014,04,30,14,58,18.00
2014,04,30,14,59,18.00
2014,04,30,15,00,18.10
2014,04,30,15,01,18.10
2014,04,30,15,02,18.10
2014,04,30,15,03,18.20
2014,04,30,15,04,18.20
2014,04,30,15,05,18.20
2014,04,30,15,06,18.20
2014,04,30,15,07,18.20
2014,04,30,15,08,18.30
2014,04,30,15,09,18.30
2014,04,30,15,10,18.40
2014,04,30,15,11,18.40
2014,04,30,15,12,18.40
2014,04,30,15,13,18.40
2014,04,30,15,14,18.40
2014,04,30,15,15,18.40
2014,04,30,15,16,18.40
2014,04,30,15,17,18.40
2014,04,30,15,18,18.40
2014,04,30,15,19,18.40
2014,04,30,15,20,18.40
2014,04,30,15,21,18.40
2014,04,30,15,22,18.50
2014,04,30,15,23,18.50
2014,04,30,15,24,18.50
2014,04,30,15,25,18.40
2014,04,30,15,26,18.40
2014,04,30,15,27,18.40
2014,04,30,15,28,18.40
2014,04,30,15,29,18.50
2014,04,30,15,30,18.60
2014,04,30,15,31,18.70
2014,04,30,15,32,18.70
2014,04,30,15,33,18.80
2014,04,30,15,34,18.80
2014,04,30,15,35,18.80
2014,04,30,15,36,18.80
2014,04,30,15,37,18.80
2014,04,30,15,38,18.90
2014,04,30,15,39,19.00
2014,04,30,15,40,19.00
2014,04,30,15,41,19.00
2014,04,30,15,42,19.10
2014,04,30,15,43,19.10
2014,04,30,15,44,19.20
2014,04,30,15,45,19.20
2014,04,30,15,46,19.20
2014,04,30,15,47,19.20
2014,04,30,15,48,19.20
2014,04,30,15,49,19.20
2014,04,30,15,50,19.20
2014,04,30,15,51,19.20
2014,04,30,15,52,19.20
2014,04,30,15,53,19.20
2014,04,30,15,54,19.30
2014,04,30,15,55,19.30
2014,04,30,15,56,19.30
2014,04,30,15,57,19.30
2014,04,30,15,58,19.40
2014,04,30,15,59,19.40
2014,04,30,16,00,19.50
2014,04,30,16,01,19.60
2014,04,30,16,02,19.60
2014,04,30,16,03,19.60
2014,04,30,16,04,19.60
2014,04,30,16,05,19.60
2014,04,30,16,06,19.60
2014,04,30,16,07,19.50
2014,04,30,16,08,19.50
2014,04,30,16,09,19.50
2014,04,30,16,10,19.50
2014,04,30,16,11,19.50
2014,04,30,16,12,19.50
2014,04,30,16,13,19.60
2014,04,30,16,14,19.60
2014,04,30,16,15,19.60
2014,04,30,16,16,19.70
2014,04,30,16,17,19.70
2014,04,30,16,18,19.60
2014,04,30,16,19,19.60
2014,04,30,16,20,19.50
2014,04,30,16,21,19.50
2014,04,30,16,22,19.40
2014,04,30,16,23,19.40
2014,04,30,16,24,19.40
2014,04,30,16,25,19.40
2014,04,30,16,26,19.40
2014,04,30,16,27,19.40
2014,04,30,16,28,19.40
2014,04,30,16,29,19.40
2014,04,30,16,30,19.40
2014,04,30,16,31,19.40
2014,04,30,16,32,19.40
2014,04,30,16,33,19.30
2014,04,30,16,34,19.30
2014,04,30,16,35,19.30
2014,04,30,16,36,19.20
2014,04,30,16,37,19.20
2014,04,30,16,38,19.10
2014,04,30,16,39,19.00
2014,04,30,16,40,18.90
2014,04,30,16,41,18.90
2014,04,30,16,42,18.90
2014,04,30,16,43,18.90
2014,04,30,16,44,18.90
2014,04,30,16,45,18.90
2014,04,30,16,46,18.90
2014,04,30,16,47,18.90
2014,04,30,16,48,18.90
2014,04,30,16,49,18.90
2014,04,30,16,50,18.80
2014,04,30,16,51,18.80
2014,04,30,16,52,18.70
2014,04,30,16,53,18.70
2014,04,30,16,54,18.60
2014,04,30,16,55,18.50
2014,04,30,16,56,18.50
2014,04,30,16,57,18.40
2014,04,30,16,58,18.40
2014,04,30,16,59,18.30
2014,04,30,17,00,18.30
2014,04,30,17,01,18.30
2014,04,30,17,02,18.30
2014,04,30,17,03,18.20
2014,04,30,17,04,18.20
2014,04,30,17,05,18.10
2014,04,30,17,06,18.10
2014,04,30,17,07,18.00
2014,04,30,17,08,17.90
2014,04,30,17,09,17.90
2014,04,30,17,10,17.80
2014,04,30,17,11,17.80
2014,04,30,17,12,17.80
2014,04,30,17,13,17.80
2014,04,30,17,14,17.70
2014,04,30,17,15,17.70
2014,04,30,17,16,17.70
2014,04,30,17,17,17.70
2014,04,30,17,18,17.70
2014,04,30,17,19,17.70
2014,04,30,17,20,17.70
2014,04,30,17,21,17.80
2014,04,30,17,22,17.80
2014,04,30,17,23,17.80
2014,04,30,17,24,17.80
2014,04,30,17,25,17.80
2014,04,30,17,26,17.80
2014,04,30,17,27,17.80
2014,04,30,17,28,17.80
2014,04,30,17,29,17.90
2014,04,30,17,30,17.90
2014,04,30,17,31,17.90
2014,04,30,17,32,18.00
2014,04,30,17,33,18.00
2014,04,30,17,34,18.10
2014,04,30,17,35,18.20
2014,04,30,17,36,18.20
2014,04,30,17,37,18.30
2014,04,30,17,38,18.40